SCP
1 1 1 0 0 0 0 0 0 0 0 0 0 0 0 0 0 0 0 0 0 0 0 0 0 0 0 0 0 0 0 0 0 0 0 0 0 0 0 0 0 0 0 0
1 1 0 0 0 0 0 0 0 0 0 0 0 0 0 0 0 0 0 0 0 0 0 0 0 0 0 0 0 0 0 0 0 0 0 0 0 0 0 0 0 0 0 0
0 0 0 0 0 0 0 0 0 0 0 0 0 0 0 0 0 0 0 0 0 0 0 0 0 0 0 0 0 0 0 0 0 0 0 0 0 0 0 0 0 0 0 0
0 0 0 0 0 0 0 0 0 0 0 0 0 0 0 0 0 0 0 0 0 0 0 0 0 0 0 0 0 0 0 0 0 0 0 0 0 0 0 0 0 0 0 0
0 0 0 0 0 0 0 0 0 0 0 0 0 0 0 0 0 0 0 0 0 0 0 0 0 0 0 0 0 0 0 0 0 0 0 0 0 0 0 0 0 0 0 0
0 0 0 0 0 0 0 0 0 0 0 0 0 0 0 0 0 0 0 0 0 0 0 0 0 0 0 0 0 0 0 0 0 0 0 0 0 0 0 0 0 0 0 0
0 0 0 0 0 0 0 0 0 0 0 0 0 0 0 0 0 0 0 0 0 0 0 0 0 0 0 0 0 0 0 0 0 0 0 0 0 0 0 0 0 0 0 0
0 0 0 0 0 0 0 0 0 0 0 0 0 0 0 0 0 0 0 0 0 0 0 0 0 0 0 0 0 0 0 0 0 0 0 0 0 0 0 0 0 0 0 0
0 0 0 0 0 0 0 0 0 0 0 0 0 0 0 0 0 0 0 0 0 0 0 0 0 0 0 0 0 0 0 0 0 0 0 0 0 0 0 0 0 0 0 0
0 0 0 0 0 0 0 0 0 0 0 0 0 0 0 0 0 0 0 0 0 0 0 0 0 0 0 0 0 0 0 0 0 0 0 0 0 0 0 0 0 0 0 0
0 0 0 0 0 0 0 0 0 0 0 0 0 0 0 0 0 0 0 0 0 0 0 0 0 0 0 0 0 0 0 0 0 0 0 0 0 0 0 0 0 0 0 0
0 0 0 0 0 0 0 0 0 0 0 0 0 0 0 0 0 0 0 0 0 0 0 0 0 0 0 0 0 0 0 0 0 0 0 0 0 0 0 0 0 0 0 0
0 0 0 0 0 0 0 0 0 0 0 0 0 0 0 0 0 0 0 0 0 0 0 0 0 0 0 0 0 0 0 0 0 0 0 0 0 0 0 0 0 0 0 0
0 0 0 0 0 0 0 0 0 0 0 0 0 0 0 0 0 0 0 0 0 0 0 0 0 0 0 0 0 0 0 0 0 0 0 0 0 0 0 0 0 0 0 0
0 0 0 0 0 0 0 0 0 0 0 0 0 0 0 0 0 0 0 0 0 0 0 0 0 0 0 0 0 0 0 0 0 0 0 0 0 0 0 0 0 0 0 0
0 0 0 0 0 0 0 0 0 0 0 0 0 0 0 0 0 0 0 0 0 0 0 0 0 0 0 0 0 0 0 0 0 -0 0 0 0 0 0 0 0 0 0 0
0 0 0 0 0 0 0 0 0 0 0 0 0 0 0 0 0 0 0 0 0 0 0 0 0 0 0 0 0 0 0 0 0 0 0 0 0 0 0 0 0 0 0 0
0 0 0 0 0 0 0 0 0 0 0 0 0 0 0 0 0 0 0 0 0 0 0 0 0 0 0 0 0 0 0 0 0 0 0 0 0 0 0 0 0 0 0 0
0 0 0 0 0 0 0 0 0 0 0 0 0 0 0 0 0 0 0 0 0 0 0 0 0 0 0 0 0 0 0 0 0 0 0 0 0 0 0 0 0 0 0 0
0 0 0 0 0 0 0 0 0 0 0 0 0 0 0 0 0 0 0 0 0 0 0 0 0 0 0 0 0 0 0 0 0 0 0 0 0 0 0 0 0 0 0 0
0 0 0 0 0 0 0 0 0 0 0 0 0 0 0 0 0 0 0 0 0 0 0 0 0 0 0 0 0 0 0 0 0 0 0 0 0 0 0 0 0 0 0 0
0 0 0 0 0 0 0 0 0 0 0 0 0 0 0 0 0 0 0 0 0 0 0 0 0 0 0 0 0 0 0 0 0 0 0 0 0 0 0 0 0 0 0 0
0 0 0 0 0 0 0 0 0 0 0 0 0 0 0 0 0 0 0 0 0 0 0 0 0 0 0 0 0 0 0 0 0 0 0 0 0 0 0 0 0 0 0 0
0 0 0 0 0 0 0 0 0 0 0 0 0 0 0 0 0 0 0 0 0 0 0 0 0 0 0 0 0 0 0 0 0 0 0 0 0 0 0 0 0 0 0 0
0 0 0 0 0 0 0 0 0 0 0 0 0 0 0 0 0 0 0 0 0 0 0 0 0 0 0 0 0 0 0 0 0 0 0 0 0 0 0 0 0 0 0 0
0 0 0 0 0 0 0 0 0 0 0 -0 -0 -0 -0 0 0 0 0 0 0 0 0 0 0 0 0 0 0 0 0 0 0 0 0 0 0 0 0 0 0 0 0 0
Wind_Speed
12 11 11 12 10 4 3 5 5 3 1 6 9 10 9 7 10 11 12 12 12 11 9 9 9 9 8 6 5 2 1 0 1 2 3 2 2 2 2 3 5 5 6 7
11 12 10 6 6 5 6 7 7 2 0 5 8 11 10 8 11 12 13 13 13 11 10 10 11 10 9 7 6 4 2 0 2 2 3 2 2 2 3 2 3 5 6 7
11 7 8 8 8 8 8 8 7 5 2 5 7 10 7 5 8 9 11 11 12 12 12 13 12 11 9 8 6 3 2 2 0 1 1 1 1 1 1 2 3 4 5 5
6 5 9 9 8 8 7 3 5 5 7 4 4 8 5 3 6 9 11 12 12 12 12 12 12 12 11 9 6 5 4 2 1 1 1 3 3 3 3 3 3 3 3 5
5 6 8 9 6 6 1 1 3 5 7 8 6 8 5 2 6 8 10 11 12 12 12 12 12 11 10 8 7 5 4 4 3 1 1 3 2 2 2 2 2 3 3 3
3 2 3 2 1 2 5 4 3 5 6 8 3 6 6 2 2 2 6 9 11 12 12 11 11 10 9 8 7 6 6 5 3 3 3 3 2 3 2 2 3 2 1 2
5 5 4 3 5 6 6 6 4 5 5 3 1 6 6 2 2 4 3 5 8 10 12 12 12 12 11 10 9 8 7 6 5 4 4 3 3 3 2 3 2 2 2 2
6 7 7 6 5 5 6 7 5 4 5 4 3 7 4 1 2 4 4 4 6 10 11 12 13 12 11 11 10 9 8 7 6 5 4 4 3 3 2 2 3 2 2 3
4 4 4 3 2 4 5 6 4 7 6 7 5 4 6 3 4 4 4 5 7 9 11 11 12 12 11 11 11 10 8 7 6 6 5 4 5 4 3 3 3 2 2 2
2 3 5 5 5 2 3 1 4 6 6 7 6 6 4 3 2 3 6 7 7 8 10 11 11 11 11 10 10 10 9 8 7 6 5 4 5 4 4 4 3 3 3 2
4 3 6 7 7 6 6 5 6 5 5 7 7 4 3 5 5 5 5 6 8 9 10 10 10 11 11 10 10 10 9 8 6 6 5 5 5 5 4 4 3 4 4 3
3 5 4 4 3 2 5 6 7 8 7 7 8 7 1 4 5 6 6 6 7 9 9 10 11 11 11 12 11 10 9 8 7 6 6 6 5 5 5 4 4 4 3 3
3 6 5 5 6 6 6 5 7 8 7 8 9 8 2 4 6 6 7 7 8 9 10 10 11 11 12 12 12 11 10 9 8 7 7 6 6 6 5 5 4 4 4 3
4 7 8 8 5 2 5 6 8 10 9 11 13 15 13 11 10 9 8 8 9 10 11 12 12 12 13 13 12 12 11 9 8 8 7 7 6 6 6 5 4 5 4 4
5 9 9 9 8 7 9 9 10 13 14 16 17 17 17 15 13 11 9 9 10 11 12 13 13 13 13 13 13 12 11 10 9 9 8 7 7 6 5 5 5 6 6 6
5 8 9 11 9 8 12 14 14 15 16 17 18 19 17 16 13 11 11 11 12 13 14 14 14 14 14 14 13 13 12 11 10 10 9 8 7 7 7 6 6 6 6 6
5 8 10 13 9 8 14 12 13 12 12 14 16 17 15 14 13 12 11 11 13 14 14 14 15 14 14 14 14 14 13 12 11 10 9 8 8 7 7 6 6 7 7 7
10 11 9 11 12 16 9 3 6 11 13 12 14 16 16 14 13 12 11 11 12 13 13 14 14 14 13 13 13 12 12 12 12 11 10 8 8 7 7 7 7 7 7 6
10 10 8 9 13 14 11 7 6 8 8 7 9 11 13 11 10 9 7 10 12 11 12 12 13 14 14 14 14 13 13 12 12 11 10 9 8 7 7 7 7 6 5 6
6 8 9 9 11 12 8 3 1 6 5 10 11 12 13 9 7 6 7 6 8 8 9 10 12 13 13 13 13 14 13 13 12 10 9 8 7 6 6 5 5 4 4 5
5 7 9 12 12 9 6 4 3 6 5 12 13 14 13 9 10 13 12 8 6 7 8 10 12 12 12 13 14 14 14 13 11 9 8 7 6 6 4 3 3 3 3 4
9 8 9 8 10 6 7 2 2 7 10 12 14 14 15 14 14 13 11 7 4 6 8 11 11 11 11 13 14 14 13 11 10 9 8 7 6 5 4 3 2 2 2 3
6 6 5 6 5 6 6 5 6 8 12 13 15 16 15 16 15 14 11 8 5 6 8 10 11 11 11 12 13 14 12 11 11 10 9 7 7 5 4 4 3 2 1 1
5 3 7 9 8 8 9 7 7 10 13 15 15 15 15 15 15 14 12 9 6 7 8 9 11 12 12 12 12 11 12 12 12 11 10 8 7 7 5 3 2 1 0 0
11 9 11 15 14 13 7 8 12 14 15 15 15 15 15 15 15 14 12 10 7 6 7 9 11 12 13 13 12 12 12 13 12 11 9 8 7 7 6 5 4 3 5 5
13 13 14 15 13 13 15 15 16 15 15 16 17 17 16 15 15 15 12 10 8 8 8 10 12 13 13 14 14 13 13 13 13 11 10 8 7 7 6 7 7 9 8 9
Wind_Direction
172 185 192 198 210 239 242 252 267 292 169 238 254 266 262 215 217 221 214 210 210 211 197 185 184 182 181 181 195 194 231 66 344 342 333 342 360 348 1 9 11 358 359 359
170 197 193 189 199 226 246 260 270 280 153 257 276 274 268 244 228 226 221 213 211 205 192 187 190 189 190 187 200 205 194 87 7 7 349 350 342 337 1 346 5 2 2 0
182 171 171 192 203 221 241 259 283 300 280 237 281 271 249 216 223 225 227 226 214 205 199 191 192 191 190 192 198 201 182 174 141 34 343 317 301 277 300 358 9 4 1 6
179 151 184 205 217 232 245 283 278 270 266 272 279 295 278 212 224 219 216 215 212 202 201 194 190 189 194 191 189 197 183 190 134 224 328 338 335 344 360 343 358 359 11 12
169 178 197 216 229 234 294 29 255 257 267 276 245 273 284 195 240 218 207 207 206 199 196 194 192 189 190 182 182 191 183 190 185 231 281 288 316 337 340 330 349 346 28 13
116 164 231 223 106 188 151 180 187 221 251 264 282 272 282 233 248 214 194 201 200 196 193 190 185 182 181 179 180 186 190 199 201 226 246 274 309 306 324 334 351 344 25 18
164 167 160 167 159 164 204 238 241 229 230 265 115 260 269 314 282 270 249 209 196 192 189 184 180 182 181 182 185 187 193 202 206 220 240 249 269 291 301 323 352 332 348 9
186 172 175 194 228 202 208 242 267 288 292 303 224 254 279 352 271 264 249 223 191 188 189 186 184 184 183 184 187 192 198 207 207 220 234 245 245 261 287 303 307 312 328 351
202 142 134 188 230 223 200 226 292 288 290 286 273 272 284 219 237 224 210 197 191 187 187 188 185 186 185 186 188 194 200 209 211 221 233 241 243 250 263 263 279 293 302 315
262 167 148 148 163 83 308 204 210 256 289 291 287 280 287 312 283 219 207 203 194 187 187 188 185 187 187 187 190 194 204 212 213 221 229 240 243 241 252 265 272 288 294 301
260 226 160 183 215 204 174 201 234 255 272 283 296 308 359 312 306 267 234 214 200 193 191 189 187 187 186 186 189 194 201 208 213 220 224 229 230 237 238 247 257 266 269 262
247 272 219 185 121 330 246 244 234 257 259 258 282 288 19 275 284 268 253 226 209 201 196 193 189 187 186 189 192 197 200 203 209 216 218 225 223 227 236 231 241 251 260 275
202 256 250 191 180 188 218 223 238 258 269 258 261 274 146 256 267 254 247 232 209 200 196 193 191 192 191 192 195 196 203 202 203 208 217 221 220 225 232 231 227 244 246 253
259 258 270 283 312 280 227 212 219 234 252 262 259 274 283 282 278 267 248 233 217 204 198 195 192 195 195 194 198 196 201 200 201 202 214 219 219 221 228 230 231 237 235 240
259 270 268 276 284 270 267 256 228 235 257 270 280 282 284 287 287 281 261 238 220 210 201 199 197 195 194 195 200 201 197 195 199 204 212 219 220 218 225 227 230 235 237 240
266 276 278 269 265 262 264 267 259 251 259 267 275 279 282 285 283 274 257 236 222 214 206 201 199 196 195 193 197 197 197 195 198 206 213 212 218 216 221 229 229 231 237 242
256 268 278 277 276 268 265 264 262 255 249 259 272 285 297 293 282 273 262 240 227 219 207 200 199 198 196 194 195 196 196 193 199 207 212 209 216 219 226 227 229 232 237 239
258 261 266 275 273 265 280 311 277 267 267 272 278 290 300 297 291 279 260 244 234 221 208 201 198 195 195 193 192 193 190 192 199 206 208 208 211 218 222 226 232 235 238 238
237 245 253 262 265 269 277 274 249 256 276 344 322 316 321 320 296 268 252 240 236 223 210 199 196 192 190 189 187 186 188 193 199 203 204 205 207 214 221 227 237 242 245 246
214 230 248 251 261 268 283 346 303 258 248 18 354 342 338 334 304 318 335 273 242 224 206 191 186 187 186 184 183 189 191 192 197 198 198 199 205 210 216 227 242 241 240 250
206 213 234 251 259 267 337 2 219 247 351 359 352 348 343 330 313 319 322 294 248 210 193 182 179 181 180 176 180 191 192 193 189 185 185 187 193 200 207 218 225 237 243 254
269 259 248 252 253 263 40 33 3 2 350 345 344 342 335 324 320 321 318 305 258 204 186 181 178 177 172 175 183 192 192 180 170 169 174 177 180 183 178 184 200 219 236 242
261 291 297 272 295 20 12 356 359 347 338 340 337 335 330 324 324 325 318 306 267 219 192 186 182 172 171 179 188 190 177 166 165 166 167 169 166 162 165 169 171 182 206 254
272 301 279 277 277 308 319 328 338 338 331 329 329 329 326 324 324 322 317 305 277 234 204 190 184 181 179 180 186 184 166 166 168 168 167 166 166 158 152 147 149 141 118 300
286 287 281 280 289 300 290 324 330 328 326 326 325 324 323 320 318 318 311 303 283 247 214 200 197 194 184 177 177 172 167 168 169 167 166 164 159 153 146 124 77 80 62 35
263 269 273 280 300 301 302 317 322 321 321 323 321 318 318 316 312 311 306 299 283 257 226 211 206 199 188 179 175 170 170 171 169 167 166 162 157 154 147 134 112 62 73 75